Weather past 2 weeks in Port-aux-Francais, Kerguelen Islands

Now
37 °F

Chilly.


Feels Like: 26 °F
Forecast: 32 / 37 °F
Wind: 21 mph from West

Location: Port-Aux-Francais Iles Kerguelen

Current Time: Oct 2, 2014 at 5:16:46 PM

Latest Report: Oct 2, 2014 at 4:00 PM


Visibility: N/A

Pressure: 29.44 "Hg

Humidity: 72%

Dew point: 29 °F

Location of Port-aux-FrancaisLocation

Historic Weather in Port-aux-Francais — Graph

°F

Port-aux-Francais temperature yesterday

Maximum temperature yesterday: 40 °F (at 2:00 PM)
Minimum temperature yesterday: 29 °F (at 12:00 AM)
Average temperature yesterday: 34 °F

Past Weeks' High & Low Weather Summary

 TemperatureHumidityPressure
High53 °F (Sep 26, 2:00 PM)100% (Sep 20, 5:00 AM)30.02 "Hg (Sep 20, 5:00 AM)
Low24 °F (Sep 30, 4:00 AM)52% (Sep 17, 4:00 PM)28.50 "Hg (Sep 21, 1:00 AM)
Average34 °F80%29.46 "Hg
* Reported Sep 17 4:00 PM — Oct 2 4:00 PM, Port-aux-Francais, Weather by CustomWeather, © 2014

Note: Actual official high and low records may vary slightly from our data, if they occured in-between our weather recording intervals... More about our weather records

Advertising

Port-aux-Francais weather history for previous 24 hours

 ConditionsComfort  
Time TempWeatherWind HumidityBarometerVisibility
4:00 PM
Oct 2
37 °FChilly.21 mph72%29.44 "HgN/A
3:00 PM38 °FChilly.21 mph74%29.44 "HgN/A
2:00 PM39 °FOvercast.26 mph70%29.44 "Hg12 mi
1:00 PM40 °FChilly.22 mph71%29.44 "HgN/A
12:00 PM39 °FChilly.28 mph72%29.44 "HgN/A
11:00 AM37 °FOvercast.20 mph79%29.47 "Hg12 mi
10:00 AM35 °FChilly.17 mph81%29.47 "HgN/A
9:00 AM35 °FChilly.23 mph77%29.53 "HgN/A
8:00 AM33 °FOvercast.18 mph74%29.55 "Hg12 mi
7:00 AM32 °FChilly.12 mph72%29.59 "HgN/A
6:00 AM31 °FChilly.20 mph72%29.59 "HgN/A
5:00 AM31 °FChilly.18 mph87%29.60 "HgN/A
4:00 AM29 °FChilly.20 mph95%29.58 "HgN/A
3:00 AM29 °FChilly.21 mph96%29.58 "HgN/A
2:00 AM31 °FChilly.24 mph75%29.56 "HgN/A
1:00 AM31 °FChilly.30 mph70%29.53 "HgN/A
12:00 AM32 °FChilly.28 mph69%29.50 "HgN/A
11:00 PM
Oct 1
32 °FChilly.28 mph84%29.47 "HgN/A
10:00 PM31 °FChilly.30 mph92%29.47 "HgN/A
9:00 PM31 °FChilly.25 mph95%29.47 "HgN/A
8:00 PM32 °FChilly.23 mph90%29.44 "HgN/A
7:00 PM33 °FChilly.29 mph89%29.41 "HgN/A
6:00 PM34 °FChilly.28 mph91%29.38 "HgN/A
5:00 PM34 °FChilly.23 mph97%29.38 "HgN/A
Weather by CustomWeather, © 2014

See weather overviewHow to use our weather pages